| Date | Time | Temp. (oF) | Dew Point (oF) | Rel. Hum. (%) | Press. (in.) | Wind Dir. | Wind Speed (mph) | Hourly Rainfall (in.) |
|
|---|---|---|---|---|---|---|---|---|---|
| 1 | 05/18 | 00:00 | 51 | 49 | 95 | 30.37 | SSE | 1 | 0.00 |
| 2 | 05/17 | 23:00 | 51 | 49 | 93 | 30.37 | ESE | 1 | 0.00 |
| 3 | 05/17 | 22:00 | 51 | 48 | 92 | 30.38 | ESE | 2 | 0.00 |
| 4 | 05/17 | 21:00 | 52 | 49 | 91 | 30.37 | SSE | 2 | 0.00 |
| 5 | 05/17 | 20:00 | 53 | 49 | 89 | 30.36 | SE | 1 | 0.00 |
| 6 | 05/17 | 19:00 | 53 | 49 | 88 | 30.35 | SSE | 2 | 0.00 |
| 7 | 05/17 | 18:00 | 53 | 49 | 87 | 30.35 | S | 4 | 0.00 |
| 8 | 05/17 | 17:00 | 53 | 48 | 86 | 30.36 | SE | 0 | 0.00 |
| 9 | 05/17 | 16:00 | 53 | 49 | 87 | 30.35 | SE | 2 | 0.00 |
| 10 | 05/17 | 15:00 | 52 | 48 | 87 | 30.37 | ENE | 5 | 0.00 |
| 11 | 05/17 | 14:00 | 52 | 48 | 88 | 30.37 | ESE | 2 | 0.00 |
| 12 | 05/17 | 13:00 | 50 | 46 | 89 | 30.38 | NNE | 4 | 0.00 |
| 13 | 05/17 | 12:00 | 49 | 46 | 91 | 30.39 | NE | 9 | 0.00 |
| 14 | 05/17 | 11:00 | 48 | 46 | 95 | 30.39 | E | 12 | 0.00 |
| 15 | 05/17 | 10:00 | 46 | 45 | 97 | 30.39 | ENE | 6 | 0.00 |
| 16 | 05/17 | 09:00 | 47 | 46 | 98 | 30.40 | E | 5 | 0.00 |
| 17 | 05/17 | 08:00 | 46 | 45 | 98 | 30.40 | ESE | 4 | 0.00 |
| 18 | 05/17 | 07:00 | 46 | 45 | 100 | 30.38 | ESE | 5 | 0.00 |
| 19 | 05/17 | 06:00 | 46 | 45 | 100 | 30.36 | ENE | 4 | 0.00 |
| 20 | 05/17 | 05:00 | 46 | 45 | 100 | 30.33 | ESE | 3 | 0.00 |
| 21 | 05/17 | 04:00 | 46 | 45 | 100 | 30.32 | E | 4 | 0.00 |
| 22 | 05/17 | 03:00 | 46 | 45 | 100 | 30.33 | E | 7 | 0.00 |
| 23 | 05/17 | 02:00 | 47 | 46 | 100 | 30.34 | E | 4 | 0.00 |
| 24 | 05/17 | 01:00 | 47 | 46 | 100 | 30.35 | E | 7 | 0.01 |